Weather in Leverkusen

Germany     51°01′44″N   6°59′24″E
temp.,
°C
wind,
m/s
gust,
m/s
humid.,
%
clouds,
%
prec.,
mm/h
press.,
hPa
HPBL,
m
16 may, sun
sun1623:00+9ssw38955 1.4 1002270
02:00+7s289751 1.4 1003228
05:00+6sse259817 0.0 1003115
08:00+9s37925 0.0 1004381
11:00+12sw368198 1.4 10031174
14:00+12sw478082 3.3 1002955
17:00+14wsw467136 1.2 10011148
20:00+11wsw37882 2.8 1001374
17 may, mon
mon1723:00+9ssw229511 0.5 100230
02:00+8se2496100 0.5 100296
05:00+9sse2598100 1.2 1002182
08:00+9ssw2893100 1.4 1004731
11:00+10ssw598991 1.1 10051052
14:00+9ssw41195100 6.4 10051021
17:00+12wsw6118997 2.1 10061223
20:00+12w4109049 3.6 1007734
18 may, tue
tue1823:00+9sw229798 0.2 100951
02:00+7s229863 0.4 101047
05:00+7s249861 0.3 1010131
08:00+9sw3894100 0.5 1011899
11:00+9sw4991100 0.3 1012710
14:00+11wsw598980 2.1 10121096
17:00+12nw488079 1.4 10131142
20:00+11wnw36887 2.4 1014351
19 may, wed
wed1923:00+8wsw11955 0.2 101613
02:00+6ssw129778 0.2 101622
05:00+7s259899 0.0 1016229
08:00+9ssw248897 0.0 1016303
11:00+12sw3478100 0.6 10161029
14:00+10ssw348599 1.1 1016568
17:00+14w236188 0.1 10161282
20:00+12wnw248727 0.8 1017238
20 may, thu
thu2023:00+9wnw119647 1.9 101927
02:00+7nw26972 2.4 1021162
05:00+5w2698100 0.0 1022172
08:00+7w3595100 0.0 1024320
11:00+10w3584100 0.3 1025842
14:00+13w366886 1.1 10241469
17:00+15wnw475316 0.5 10231810
20:00+13wnw47585 0.6 1023847